Home > Weather > Koblenz > Past weeks

Flag for Germany Weather for the Past 2 Weeks in Koblenz, Rhineland-Palatinate, Germany

Now
34 °F

Passing clouds.


Feels Like: 28 °F
Forecast: 33 / 43 °F
Wind: 7 mph from West

Location: Buechel

Current Time: Feb 11, 2016 at 7:35:22 AM

Latest Report: Feb 11, 2016 at 6:20 AM


Visibility: 5 mi

Pressure: 29.62 "Hg

Humidity: 100%

Dew point: 34 °F

Location of KoblenzLocation

Historic Weather in Koblenz — Graph

°F

Koblenz Temperature Yesterday

Maximum temperature yesterday: 36 °F (at 1:59 PM)
Minimum temperature yesterday: 32 °F (at 7:20 AM)
Average temperature yesterday: 34 °F

High & Low Weather Summary for the Past Weeks

 TemperatureHumidityPressure
High50 °F (Feb 1, 1:20 AM)100% (Jan 28, 5:20 AM)30.33 "Hg (Jan 28, 5:20 AM)
Low32 °F (Jan 29, 12:20 AM)62% (Jan 27, 7:20 PM)28.94 "Hg (Feb 9, 5:20 PM)
Average40 °F90%29.88 "Hg
* Reported Jan 27 6:20 AM — Feb 11 6:20 AM, Koblenz, Weather by CustomWeather, © 2016

Note: Actual official high and low records may vary slightly from our data, if they occured in-between our weather recording intervals... More about our weather records

Advertising

Koblenz Weather History for the Previous 24 Hours

 ConditionsComfort  
Time TempWeatherWind HumidityBarometerVisibility
6:20 AM
Thu, Feb 11
34 °FPassing clouds.7 mph100%29.62 "Hg5 mi
5:20 AM34 °FFog.7 mph100%29.62 "Hg2 mi
4:20 AM34 °FChilly.8 mph93%29.62 "Hg3 mi
3:20 AM34 °FChilly.8 mph100%29.62 "HgN/A
2:20 AM34 °FChilly.8 mph93%29.59 "HgN/A
1:20 AM34 °FChilly.7 mph100%29.59 "HgN/A
12:20 AM36 °FChilly.7 mph93%29.56 "HgN/A
11:20 PM
Wed, Feb 10
34 °FChilly.9 mph100%29.56 "HgN/A
10:20 PM34 °FChilly.10 mph100%29.53 "HgN/A
9:20 PM34 °FPartly cloudy.13 mph100%29.50 "Hg4 mi
8:20 PM36 °FPartly cloudy.10 mph93%29.47 "HgN/A
7:20 PM36 °FLight rain. Passing clouds.12 mph93%29.47 "Hg4 mi
6:20 PM36 °FLight rain. Passing clouds.12 mph93%29.45 "Hg4 mi
5:20 PM36 °FLight rain. Broken clouds.13 mph93%29.42 "HgN/A
4:20 PM36 °FBroken clouds.12 mph93%29.39 "HgN/A
3:20 PM36 °FPartly sunny.12 mph93%29.39 "HgN/A
2:20 PM36 °FPartly sunny.12 mph100%29.36 "Hg5 mi
1:59 PM36 °FLight rain. Partly sunny.13 mph93%29.36 "Hg5 mi
1:20 PM34 °FLight rain. Fog.14 mph100%29.36 "Hg3 mi
12:47 PM34 °FSnow. Fog.13 mph100%29.36 "Hg1 mi
12:20 PM34 °FLight snow. Fog.13 mph93%29.36 "Hg2 mi
11:20 AM32 °FHeavy snow. Mostly cloudy.13 mph100%29.36 "Hg1 mi
10:55 AM32 °FSnow. Ice fog.16 mph100%29.33 "Hg1 mi
10:20 AM32 °FLight snow. Ice fog.16 mph100%29.33 "Hg2 mi
9:20 AM32 °FSnow. Ice fog.16 mph100%29.30 "Hg1 mi
8:20 AM32 °FSnow. Mostly cloudy.15 mph93%29.30 "Hg1 mi
7:20 AM32 °FSnow. Passing clouds.14 mph93%29.30 "Hg1 mi
Weather by CustomWeather, © 2016

See weather overviewHow to use our weather pages